Location: ??
(34.7252°N, 135.5457°E)
Time: 09:06:19
(UTC+00:00)

ATLAS 2AS CENTAUR R/B - Pass Details

Date: 24 September 2020
Orbit: 939 x 1273 km, 63.7° (Epoch: 19 October)

Event Time Altitude Azimuth Distance (km) Brightness Sun altitude
Rises 18:50:59 0° 333° (NNW) 4,104 5.7 -24.5°
Reaches altitude 10° 18:53:59 10° 340° (NNW) 3,092 5.1 -23.9°
Maximum altitude 19:01:01 47° 52° (NE) 1,437 3.7 -22.6°
Drops below altitude 10° 19:07:29 10° 125° (SE) 2,844 5.4 -21.3°
Sets 19:10:06 0° 132° (SE) 3,749 6.0 -20.7°
